Tracking 20041 objects as of 22-Nov-2019
Live streaming from Space Station
objects crossing your sky now

COSMOS 1717

Track COSMOS 1717 now!
10-day predictions
COSMOS 1717 is classified as:


NORAD ID: 16450
Int'l Code: 1986-002B
Perigee: 1,481.7 km
Apogee: 1,520.8 km
Inclination: 74.0 °
Period: 115.9 minutes
Semi major axis: 7872 km
RCS: 0.7102 m2 (medium)
Launch date: January 9, 1986
Source: Commonwealth of Independent States (former USSR) (CIS)
Launch site: PLESETSK MISSILE AND SPACE COMPLEX (PKMTR)
aabbcc
Your satellite tracking list
Your tracking list is empty




NASA's NSSDC Master Catalog

Two Line Element Set (TLE):
1 16450U 86002B   19326.51305927 -.00000019  00000-0 -24882-4 0  9995
2 16450  73.9887  96.9340 0024818 293.2723 132.9893 12.42954409536988
Source of the keplerian elements: AFSPC